Volver al catálogo

ATLAS 5 CENTAUR DEB

ActivoHEO
NORAD 49359·DEBRIS·🇺🇸 United States

Lanzado Oct 17, 2018 desde Cape Canaveral Space Force Station

Loading…

Próximos Pases (próximas 24 horas)

TLE

ActualizadoSource: Space-Track

Época: Sep 9, 2026, 02:17 UTC

1 49359U 18079FL  26252.09576259 -.00000202  00000-0  00000-0 0  9990
2 49359  13.4202  14.5741 4717163   0.7721 359.6201  1.87005977 34357

Sigue ATLAS 5 CENTAUR DEB en tiempo real con AllMySat

Download on the App Store